Theta_e
342 349 350 347 347 350 351 350 354 355 359 364 364 362 362 361 361 357 354 353 350 345 344 344 347 349 346 341 342 342 342 339 338
339 347 350 348 346 346 348 350 354 355 358 362 363 360 364 363 362 360 353 351 351 350 343 342 343 349 345 342 340 342 340 337 339
339 344 349 348 347 346 347 348 351 354 357 361 361 360 362 362 362 363 360 357 356 350 346 342 344 346 344 341 340 342 339 337 338
338 341 348 349 347 345 346 347 348 352 354 357 359 359 359 359 360 360 362 360 357 355 349 347 344 346 343 339 341 340 339 338 338
338 339 345 348 348 347 346 347 346 348 351 352 356 356 359 360 359 359 359 361 359 358 353 349 346 346 343 340 340 339 339 339 337
338 339 341 347 348 349 349 348 348 347 349 349 351 355 357 360 359 361 359 361 360 359 357 352 347 346 343 341 339 338 337 337 338
337 337 347 346 349 353 353 351 351 350 348 347 349 351 352 356 359 359 360 359 359 360 358 353 346 346 343 340 337 334 335 332 338
336 336 343 350 351 359 361 357 356 354 351 351 350 352 353 354 358 359 359 358 360 360 358 353 346 344 343 337 330 334 331 326 338
336 336 337 350 352 355 364 361 360 359 356 356 354 356 356 356 360 359 359 359 360 360 358 353 348 344 341 333 336 332 331 328 336
337 336 339 342 351 353 359 357 361 360 361 358 358 359 363 360 364 364 364 362 361 360 358 352 347 343 340 338 335 333 330 328 335
337 340 341 341 349 353 356 356 356 357 358 361 362 364 362 364 364 367 366 363 361 360 354 349 347 343 338 336 336 336 332 327 332
338 336 339 340 348 350 356 357 358 360 359 362 363 364 364 364 365 365 365 363 360 357 351 349 346 343 337 336 339 337 334 330 331
335 340 340 342 349 350 356 358 356 359 359 360 361 361 362 362 362 363 362 360 357 355 352 347 343 340 337 336 337 339 336 332 334
337 341 343 349 350 356 358 356 355 360 358 358 356 355 357 359 360 360 360 358 354 351 350 346 343 340 338 339 340 340 338 336 329
346 346 348 351 355 354 355 354 356 360 358 354 354 355 357 359 361 359 357 355 353 350 345 341 340 339 339 341 342 340 337 328 329
351 352 351 350 353 353 352 353 354 358 360 358 357 358 359 360 359 356 354 353 349 347 343 341 340 340 341 342 340 339 335 333 329
350 351 352 351 352 354 359 356 357 361 359 358 358 360 357 355 352 350 349 348 346 343 343 342 342 342 341 339 338 333 334 331 329
346 346 345 347 350 352 354 355 354 355 356 357 356 351 349 348 347 347 342 339 342 341 340 340 339 340 340 338 337 334 333 331 330
347 346 345 346 347 350 353 354 354 354 355 353 352 350 348 347 346 342 338 335 332 337 335 334 334 336 334 328 327 329 329 330 330
333 341 344 346 347 348 350 351 351 351 352 351 351 349 348 346 345 343 342 341 339 337 328 331 329 329 329 330 329 328 329 328 327
Wind_Speed
15 22 22 24 25 26 29 32 31 31 31 31 31 29 28 26 26 24 22 20 16 17 15 14 15 17 14 12 11 10 8 8 8
12 20 23 26 25 30 30 33 34 34 31 32 31 32 28 28 27 28 26 22 24 18 18 15 16 17 16 14 14 12 11 10 9
13 18 22 23 23 28 32 35 35 34 33 32 32 31 31 30 29 28 26 23 22 23 18 18 18 18 18 17 14 13 12 10 10
15 17 19 21 23 31 34 35 35 36 35 33 33 33 31 30 30 30 29 28 26 23 21 21 18 19 17 16 16 12 10 10 8
16 15 18 19 22 26 32 34 36 36 36 37 35 34 32 33 30 30 31 31 27 26 26 22 23 22 21 19 16 14 12 11 12
19 5 10 18 19 22 24 33 34 37 37 39 37 35 35 33 33 33 34 31 29 29 27 26 25 25 26 24 25 25 22 18 19
10 8 8 12 17 19 22 31 33 34 36 38 37 37 36 34 35 35 32 30 31 30 31 31 31 32 30 33 32 28 26 20 24
16 15 11 13 16 16 18 25 31 34 33 35 35 33 34 34 34 32 31 31 31 30 31 31 33 36 35 38 36 36 25 19 24
17 17 14 14 16 18 18 22 27 31 33 31 33 32 33 32 32 32 31 29 29 29 29 30 31 35 37 39 32 26 24 21 24
21 21 20 13 15 19 18 28 27 28 30 30 29 29 27 29 30 31 30 28 27 30 31 29 32 30 30 30 25 22 24 22 20
21 21 22 16 14 17 24 30 30 29 29 29 28 27 27 25 27 26 26 27 29 27 28 28 29 29 28 25 21 21 20 22 24
23 19 19 13 16 21 24 28 27 28 27 27 26 25 24 25 25 25 25 26 25 26 26 25 28 27 27 25 19 16 20 24 25
22 14 13 12 18 24 26 25 29 28 27 26 25 25 25 23 24 24 24 23 23 23 22 23 25 24 26 25 25 22 23 26 24
15 15 15 13 20 17 21 24 27 25 26 25 25 23 22 21 21 21 21 19 20 20 19 18 21 21 22 23 21 20 24 22 21
6 9 13 20 15 18 23 22 22 20 19 22 22 22 20 19 19 18 16 18 17 18 19 18 18 19 21 17 14 18 18 23 22
9 11 12 18 18 19 22 20 21 20 19 20 20 20 21 18 15 13 16 17 19 16 19 18 18 20 19 13 17 15 20 20 19
12 13 13 19 20 16 17 19 18 18 18 18 18 17 15 16 17 16 14 13 13 13 14 14 11 10 9 12 14 17 10 12 18
13 12 17 20 19 17 20 19 17 15 14 17 17 17 17 16 16 14 14 12 10 12 14 15 13 14 12 7 9 9 9 10 11
11 12 16 18 20 18 19 19 18 16 15 15 18 19 19 18 17 16 14 14 12 11 10 9 7 10 10 10 8 8 11 18 17
15 13 15 16 16 15 17 17 17 16 15 16 16 14 16 18 20 19 15 14 16 14 7 10 8 7 10 10 9 14 12 13 10
Wind_Direction
200 190 203 204 202 202 197 200 200 199 194 195 197 200 202 202 208 213 214 215 217 211 215 204 182 190 201 206 205 206 205 213 215
210 186 202 203 199 199 198 199 198 199 197 195 197 200 199 202 204 212 214 217 209 219 214 206 192 192 197 200 204 207 203 212 215
214 198 203 203 198 197 198 199 199 198 198 196 198 200 199 203 206 209 217 214 211 215 213 216 188 195 196 194 199 204 207 206 219
219 203 202 206 197 199 196 198 198 197 199 199 198 202 201 204 206 209 211 217 211 209 213 201 204 198 200 193 186 196 220 231 259
211 200 192 208 204 198 196 198 199 197 198 201 202 202 202 203 206 207 211 214 210 206 209 207 200 195 194 191 187 187 179 259 256
249 148 198 193 208 199 199 197 200 200 197 202 203 202 202 204 205 208 212 209 208 207 206 202 199 195 191 187 184 181 199 192 239
239 220 202 226 206 207 197 197 197 200 198 202 203 201 206 204 207 210 210 209 207 206 206 202 196 192 191 191 192 196 201 186 221
247 243 185 215 222 209 201 194 194 198 202 198 201 199 202 205 206 208 211 210 210 209 206 207 200 191 192 195 200 200 207 198 213
246 266 247 205 219 220 196 196 200 193 199 200 200 198 203 202 199 202 208 210 210 209 208 208 205 199 196 197 200 210 206 195 216
247 252 257 216 218 219 202 198 197 198 196 202 198 206 202 202 195 199 201 204 209 209 207 203 210 209 205 203 206 220 209 201 217
235 240 251 239 211 210 201 201 197 199 194 197 201 197 202 199 199 197 197 202 211 206 200 204 210 209 211 212 220 226 226 217 226
246 241 248 226 203 204 195 196 185 185 185 190 194 192 195 202 199 200 204 208 208 197 197 205 211 212 210 217 228 230 223 217 221
224 245 252 230 195 193 184 191 182 180 183 185 189 189 191 193 196 199 204 206 205 196 200 202 202 212 217 214 226 231 233 223 221
224 220 230 187 184 179 176 183 181 180 177 181 180 178 181 187 193 198 201 196 193 196 203 198 196 211 214 215 220 233 232 220 220
207 208 187 178 168 172 171 177 163 172 163 160 160 164 171 179 184 192 189 179 175 182 184 185 192 207 216 219 229 219 220 213 230
161 170 174 156 149 156 149 148 162 151 146 148 152 159 162 171 162 156 161 161 165 175 180 187 199 211 219 223 217 207 217 217 226
123 122 123 124 129 135 124 132 137 133 140 147 150 149 134 137 142 138 153 160 164 170 181 191 199 211 209 217 218 204 208 221 236
96 101 111 116 119 122 113 113 117 122 133 143 136 134 137 139 141 142 132 128 154 164 178 195 203 221 225 194 175 183 218 236 239
85 99 102 100 98 101 106 110 114 120 130 137 139 140 145 148 140 136 137 134 118 144 157 159 167 159 158 164 184 208 237 244 238
45 64 87 93 96 103 110 114 115 122 132 139 154 157 143 150 152 145 161 160 159 160 145 174 171 174 193 204 218 223 220 216 207